Theta_e
294 293 292 292 292 292 292 292 291 291 291 290 290 289 289 289 290 290 290 289 288 288 288 288 288 289 289 290 290 290 289 289 285 288 291 290 288 288 289 292 292 291 290
293 293 292 291 291 290 291 291 291 290 290 289 289 289 289 289 289 290 288 289 287 287 286 287 287 288 288 289 289 288 288 289 287 284 287 288 287 288 288 288 289 291 290
292 292 291 290 290 287 287 287 289 286 285 287 288 288 287 286 287 289 289 288 288 287 287 286 287 287 287 288 287 287 287 288 287 285 285 287 287 288 289 288 287 289 289
292 291 290 289 288 286 286 285 285 285 285 285 286 285 284 284 285 286 288 288 287 286 286 286 286 287 286 286 286 286 287 286 286 285 285 286 288 288 288 287 286 290 287
289 288 287 287 287 286 285 284 284 284 285 285 284 284 283 284 286 288 288 287 286 285 285 286 287 286 285 286 286 286 286 286 286 285 285 286 287 287 285 285 284 286 287
287 286 287 286 285 285 284 283 283 284 284 283 283 283 282 284 285 287 288 286 284 284 284 285 286 285 286 286 286 286 287 286 286 286 285 284 284 283 284 282 283 284 284
287 286 286 285 285 284 283 282 282 282 284 282 282 283 282 283 283 285 286 285 284 284 283 283 284 285 285 286 286 285 285 286 285 284 283 283 282 283 282 282 283 282 284
287 286 285 285 285 283 282 281 282 283 282 281 282 282 282 282 282 284 285 285 283 282 282 282 283 284 285 285 284 284 284 284 283 284 283 283 283 282 282 282 281 282 284
286 286 285 285 284 282 281 281 283 282 283 283 283 282 280 282 282 283 285 284 283 282 281 282 282 283 284 285 284 282 282 283 283 282 281 281 281 281 281 281 283 281 284
287 287 286 285 285 282 283 282 282 282 283 283 282 283 280 282 281 283 285 284 283 282 281 281 280 282 283 284 283 281 281 282 281 281 281 280 279 280 279 279 280 280 283
288 287 286 285 285 284 284 283 280 281 282 281 282 282 281 280 281 283 284 284 284 282 281 281 282 281 282 283 282 282 281 281 280 279 281 281 281 280 279 279 278 278 281
287 286 285 285 285 285 284 281 280 280 280 280 280 281 281 281 279 282 284 285 284 281 281 281 281 281 281 281 281 279 278 277 280 281 281 280 279 278 278 278 277 277 277
285 285 284 283 284 284 283 281 280 280 280 280 279 280 281 281 280 282 283 284 285 282 280 280 280 280 278 277 277 276 274 280 280 281 279 277 275 275 276 278 279 278 278
284 283 282 282 282 282 283 282 283 281 280 281 280 281 282 281 280 280 282 283 283 284 280 279 279 278 277 276 273 275 275 277 277 277 276 275 276 277 276 275 278 278 280
282 281 281 282 282 281 282 283 283 284 283 283 283 283 283 282 281 282 282 282 283 283 277 275 275 275 276 277 277 275 276 276 276 275 276 275 276 277 276 275 276 278 277
281 280 281 281 281 281 281 281 284 285 284 285 286 285 284 285 285 284 284 284 283 282 277 277 277 276 276 278 278 278 276 272 275 275 275 274 275 276 276 276 277 278 276
282 281 281 280 280 280 280 281 281 282 284 284 285 285 284 284 284 285 285 285 284 282 280 279 279 278 277 277 276 276 278 276 271 274 274 274 274 274 276 276 275 275 274
279 280 281 281 281 281 281 281 282 282 281 282 285 285 285 285 285 284 285 285 283 282 281 281 279 278 277 276 274 275 275 273 272 273 272 272 272 274 275 275 275 274 274
277 278 279 280 281 281 280 280 280 280 280 281 281 280 283 285 285 286 285 284 283 283 282 280 279 279 276 276 275 274 274 274 273 272 272 271 271 273 273 272 271 266 268
276 275 277 278 278 279 279 279 278 279 279 279 279 279 281 279 283 284 284 284 283 283 282 279 278 276 275 275 274 272 271 270 270 271 272 271 271 272 272 270 271 272 272
278 277 277 279 279 279 279 279 279 279 278 278 279 279 278 279 281 283 284 283 284 283 281 280 278 276 275 274 273 272 271 272 271 272 272 271 270 270 270 271 271 269 269
277 276 276 277 277 276 276 276 276 276 275 275 275 275 277 279 279 280 282 283 282 283 282 280 278 276 275 274 274 273 272 272 272 271 272 270 269 270 269 270 269 269 268
271 270 270 269 270 269 269 269 269 270 269 269 270 270 271 272 273 274 275 276 277 278 279 278 278 276 277 276 275 275 274 273 273 273 271 271 269 270 269 270 268 267 268
267 267 267 266 266 266 267 266 266 266 267 267 267 267 268 268 269 269 270 270 271 272 273 274 277 276 274 274 274 274 274 273 272 271 271 271 270 268 270 269 269 268 269
265 264 264 264 264 264 264 264 264 265 265 265 265 266 266 267 267 267 268 268 268 268 269 269 270 270 270 270 270 271 271 270 271 270 270 270 269 269 268 268 269 269 269
263 262 262 262 262 262 263 262 262 262 262 263 263 263 264 264 265 265 265 266 266 266 267 267 268 268 269 270 270 270 271 271 270 269 270 270 269 268 268 268 268 268 268
Wind_Speed
14 14 13 12 12 11 10 10 10 9 9 8 7 6 5 5 4 3 2 2 2 3 3 4 5 4 4 5 5 6 6 7 9 9 7 9 11 12 11 11 11 11 11
14 13 13 13 12 12 10 10 10 9 8 8 8 6 5 5 5 4 3 2 1 2 3 4 4 3 5 5 5 7 6 8 8 14 10 9 9 10 9 11 9 8 9
14 14 13 12 11 9 8 8 8 7 6 7 8 7 5 4 4 4 4 3 2 1 3 4 5 5 5 5 6 6 6 6 7 7 9 7 6 7 9 6 7 8 6
13 13 12 12 11 9 9 8 8 7 7 6 6 5 5 4 5 4 3 3 2 1 3 4 4 5 6 7 6 7 6 6 6 6 7 8 8 6 5 10 11 8 6
12 11 11 10 9 9 9 8 8 7 6 6 7 6 5 4 5 6 3 2 2 3 3 4 4 4 7 7 6 7 8 7 6 6 6 7 7 8 9 7 8 9 1
12 12 10 11 10 10 9 9 9 8 8 7 7 7 6 5 8 7 4 3 3 3 2 3 4 4 5 8 9 11 9 5 4 4 4 7 9 9 7 8 7 5 4
13 12 12 12 12 11 10 10 10 10 9 9 8 7 7 7 9 8 4 3 3 3 3 3 3 3 5 6 8 8 5 7 6 6 8 8 9 7 9 10 8 5 3
14 13 12 13 13 11 11 11 10 9 11 9 9 8 7 6 11 11 8 4 3 3 3 3 4 4 4 7 6 6 5 4 6 5 6 8 8 9 8 8 9 6 3
15 14 14 14 14 13 13 13 10 10 10 9 6 9 9 7 13 13 10 6 5 4 4 4 4 4 6 8 5 6 6 4 5 6 7 7 8 9 9 7 2 4 1
17 17 15 15 15 15 14 13 10 9 9 7 8 8 9 7 13 14 11 5 5 4 4 4 6 6 5 6 4 5 5 6 7 7 4 4 5 6 9 6 5 4 2
13 13 14 14 15 15 13 9 9 10 7 8 8 7 8 9 9 15 15 6 5 4 4 3 3 5 4 5 4 3 4 7 5 4 4 3 3 4 5 7 7 6 5
11 12 13 13 11 10 14 11 10 9 9 8 8 7 7 8 11 15 16 15 9 5 4 3 3 5 3 4 2 4 5 4 3 3 3 3 4 4 5 5 6 6 5
10 11 11 11 11 11 12 11 10 10 9 8 8 7 7 6 7 17 17 16 14 7 4 5 5 4 3 3 1 3 3 2 2 2 3 3 3 4 4 2 1 1 5
10 9 9 11 10 9 8 8 7 9 9 8 8 8 7 6 6 6 8 8 13 8 7 5 5 5 3 1 2 1 1 2 2 2 3 3 3 3 2 2 2 3 2
7 7 8 7 10 9 8 9 9 8 10 10 9 8 8 8 9 13 12 8 8 8 6 3 4 4 5 4 3 2 1 2 2 1 2 3 2 3 3 2 2 2 4
7 6 6 6 7 7 7 5 9 9 12 14 9 9 6 8 7 17 20 19 17 17 4 5 6 6 6 5 5 4 3 3 2 2 2 2 2 3 3 3 4 4 5
4 5 5 5 6 6 6 5 6 7 14 15 17 17 16 8 15 13 17 19 19 18 6 7 6 6 6 5 5 5 5 4 2 3 1 1 0 1 1 3 3 3 3
3 4 4 4 5 5 5 6 5 6 6 7 14 14 17 17 15 15 15 14 9 13 7 7 6 5 6 5 5 5 4 4 4 3 3 2 1 1 1 2 2 2 2
2 1 2 3 3 4 4 4 4 4 4 4 2 3 7 16 16 17 16 9 10 10 9 8 6 5 5 5 5 5 5 5 4 4 3 3 3 2 2 2 2 2 0
3 4 3 3 4 4 4 4 3 3 3 3 3 4 2 1 7 8 9 9 8 7 6 6 6 5 5 6 5 5 5 5 5 4 3 3 3 2 2 3 3 3 2
3 4 6 5 4 4 4 3 3 2 2 1 0 1 4 4 5 6 6 8 8 7 7 6 6 5 5 5 6 6 5 5 5 4 4 3 3 3 2 1 2 1 2
6 7 7 7 7 7 7 6 6 6 6 5 5 5 8 2 2 4 2 0 2 3 4 5 5 5 6 6 6 6 6 6 5 4 4 3 3 3 3 2 2 2 3
8 9 9 8 8 9 9 8 8 7 7 7 6 6 7 6 6 5 5 5 4 2 1 3 4 5 5 5 5 5 5 5 5 5 5 4 4 4 3 3 3 3 3
9 10 10 9 8 9 9 9 8 10 8 8 7 7 7 7 7 8 7 7 6 6 6 5 3 5 6 5 3 3 3 3 3 4 5 4 4 4 4 3 4 4 4
9 9 10 9 9 9 9 9 9 9 9 8 8 8 8 8 8 8 8 8 7 7 9 7 7 9 9 8 6 6 5 6 4 4 3 3 4 5 4 4 4 4 4
9 10 9 8 8 8 8 8 8 8 8 8 8 8 8 8 8 8 7 7 7 7 8 7 8 10 8 6 6 4 3 5 5 5 4 3 3 3 3 4 6 4 6
Wind_Direction
164 163 161 163 164 163 167 164 162 164 163 160 152 147 158 180 171 175 187 222 278 288 294 290 281 279 275 274 271 267 270 270 276 294 307 314 313 315 314 317 321 311 317
165 161 166 164 164 169 168 163 163 166 164 155 150 154 167 183 179 172 171 181 247 311 308 280 284 297 290 287 290 291 289 289 287 295 309 315 311 315 299 302 310 314 322
161 162 164 170 170 164 156 151 155 157 156 163 155 161 170 194 196 192 178 182 193 278 277 288 298 302 301 307 303 297 295 292 286 288 299 306 302 307 314 298 323 328 338
166 166 169 170 171 162 158 154 155 164 164 166 154 153 157 208 218 212 209 191 198 215 286 285 287 298 304 308 304 298 295 291 282 279 287 299 301 306 321 330 332 338 340
170 169 175 164 158 154 158 160 164 171 170 165 158 170 167 204 223 209 215 192 194 199 231 259 276 302 293 298 308 311 305 294 288 284 287 294 309 329 337 337 315 315 329
173 180 166 163 162 168 163 168 173 174 168 172 179 181 192 206 223 239 247 206 192 216 229 266 284 288 312 310 323 316 306 319 304 304 305 310 317 326 329 323 317 329 343
180 176 174 169 173 173 166 167 180 181 175 190 191 186 209 212 208 222 257 243 226 219 254 275 290 293 303 325 331 328 323 338 357 324 312 319 314 332 321 314 319 314 306
185 181 174 174 176 170 168 180 184 181 186 190 195 195 205 215 209 205 206 198 224 223 245 263 279 307 326 324 335 337 335 336 347 332 311 311 313 317 307 300 293 292 265
188 184 178 177 176 172 179 184 184 183 186 193 192 192 201 211 210 205 199 189 197 213 219 232 261 282 314 331 333 337 336 323 330 332 334 333 331 325 332 309 311 309 281
190 188 179 179 182 182 183 184 177 192 192 185 195 201 198 209 203 207 202 202 198 206 210 220 235 267 306 319 326 333 328 334 331 336 333 338 350 352 0 5 334 310 318
185 178 179 183 184 181 178 171 170 189 187 190 197 199 205 207 205 207 207 201 206 198 213 208 214 248 287 300 321 298 307 319 314 304 307 337 4 5 20 12 8 351 333
172 178 180 179 178 176 174 169 172 177 185 193 200 208 214 210 214 213 213 214 203 203 208 197 204 235 244 266 293 331 328 311 306 312 337 5 1 7 8 14 22 29 29
163 176 177 173 177 175 178 172 177 175 187 195 197 208 209 202 210 217 216 217 215 206 205 200 196 207 217 225 316 348 329 335 328 325 357 353 338 321 313 346 66 43 67
165 170 167 168 175 175 177 166 201 184 187 196 199 209 207 200 199 203 207 214 220 213 187 189 197 207 222 185 237 267 9 5 353 339 331 319 311 316 327 355 315 2 36
144 152 166 170 176 180 194 177 189 209 197 196 210 205 196 211 211 204 192 192 195 192 142 159 200 211 217 210 199 215 210 211 210 264 297 321 344 344 25 1 22 49 60
147 159 168 162 174 177 180 175 213 224 208 224 224 208 212 226 193 203 207 208 198 175 169 196 212 214 220 205 201 194 207 211 215 246 277 326 359 13 33 48 50 65 79
127 146 151 154 163 166 166 170 202 216 228 225 229 230 227 222 223 216 213 209 197 175 210 203 212 202 212 205 200 199 210 200 141 242 266 317 346 69 31 76 78 80 82
90 109 146 161 156 156 164 189 200 207 209 218 230 231 236 235 226 227 222 199 190 198 211 215 210 202 202 199 194 198 199 180 195 204 212 213 224 218 177 142 123 131 130
53 98 133 145 133 139 155 171 189 200 216 228 225 233 242 233 232 224 220 206 200 203 204 218 212 203 201 196 192 190 197 197 189 183 195 205 205 210 176 161 121 71 105
81 97 108 124 131 144 150 158 165 182 196 215 223 240 243 212 220 215 207 209 204 211 210 211 201 200 199 191 181 178 187 190 189 197 197 195 197 219 193 186 189 172 169
84 101 112 113 116 120 125 126 127 140 154 178 256 9 255 233 235 225 205 204 211 208 207 211 200 195 192 184 177 178 192 195 194 194 190 189 181 204 211 211 174 148 134
65 65 64 70 71 68 69 65 65 65 53 46 31 19 358 301 247 270 322 203 168 198 186 197 193 188 183 184 179 184 191 192 186 190 189 175 180 185 180 180 188 170 162
66 70 66 61 64 66 61 57 58 58 55 48 39 34 29 30 27 21 16 12 11 355 214 186 181 171 171 169 170 182 182 186 181 172 173 178 182 189 190 192 182 189 192
71 73 74 71 65 67 67 67 65 59 60 55 50 47 44 42 43 40 36 32 36 31 29 38 63 112 108 102 111 113 111 118 137 162 166 173 183 178 191 195 193 198 194
68 71 68 68 67 69 73 68 66 62 60 56 52 50 47 46 45 43 41 42 42 48 45 47 55 69 74 83 88 96 114 122 130 135 146 160 180 185 191 202 196 196 192
68 70 70 68 67 68 70 70 65 59 56 51 48 47 45 45 41 40 39 41 45 50 54 51 57 64 70 67 80 93 134 159 161 165 158 166 172 183 194 205 202 201 198